Langdon, ND

4:09 AM CDT on August 21, 2017 (GMT -0500)
Langdon

Weather History for KD55 - March, 2014

Change the Weather History Date:

Saturday, March 1, 2014

  Actual Average (KDVL) Record (KDVL)
Temperature  
Mean Temperature -24 °F -  
Max Temperature -16 °F 28 °F 55 °F (1992)
Min Temperature -31 °F 9 °F -28 °F (1980)
Degree Days  
Heating Degree Days 88    
Moisture  
Dew Point -30 °F    
Average Humidity 67    
Maximum Humidity 76    
Minimum Humidity 53    
Precipitation  
Precipitation 0.00 in - - ()
Sea Level Pressure  
Sea Level Pressure 30.40 in    
Wind  
Wind Speed 12 mph (WNW)    
Max Wind Speed 22 mph    
Max Gust Speed 25 mph    
Visibility 10 miles    
Events      
Averages and records for this station are not official NWS values.
T = Trace of Precipitation, MM = Missing Value Source: NWS Daily Summary

Daily Weather History Graph

Daily Weather History Graph

Search for Another Location

Airport or City:

Trip Planner

Search our weather history database for the weather conditions in past years. The results will help you decide how hot, cold, wet, or windy it might be!

Date:

Astronomy

Mar. 01, 2014 Rise Set
Actual Time 7:15 AM CST 6:17 PM CST
Civil Twilight 6:43 AM CST 6:48 PM CST
Nautical Twilight 6:07 AM CST 7:25 PM CST
Astronomical Twilight 5:30 AM CST 8:02 PM CST
Moon 7:05 AM CST (3/1) 7:13 PM CST (3/1)
Length of Visible Light 12h 05m
Length of Day
11h 02m
New Moon, 0% of the Moon is Illuminated
Mar 1
New Moon
Mar 8
First Quarter
Mar 16
Full
Mar 23
Last Quarter
Mar 30
New

Hourly Weather History & Observations

Time (CST) Temp. Windchill Dew Point Humidity Pressure Visibility Wind Dir Wind Speed Gust Speed Precip Events Conditions
12:15 AM -23.8 °F -44.5 °F -31.0 °F 69% 30.29 in 10.0 mi WNW 9.2 mph - N/A   Clear
12:35 AM -22.0 °F -45.7 °F -27.4 °F 76% 30.30 in 10.0 mi NW 12.7 mph - N/A   Clear
12:55 AM -22.0 °F -43.6 °F -29.2 °F 69% 30.30 in 10.0 mi NW 10.4 mph - N/A   Clear
1:15 AM -22.0 °F -41.0 °F -29.2 °F 69% 30.30 in 10.0 mi NW 8.1 mph - N/A   Clear
1:35 AM -23.8 °F -44.5 °F -31.0 °F 69% 30.30 in 10.0 mi NW 9.2 mph - N/A   Clear
1:55 AM -23.8 °F -44.5 °F -29.2 °F 76% 30.31 in 10.0 mi NNW 9.2 mph - N/A   Clear
2:15 AM -25.6 °F -48.0 °F -31.0 °F 76% 30.31 in 10.0 mi NNW 10.4 mph - N/A   Clear
2:35 AM -25.6 °F -46.8 °F -31.0 °F 76% 30.31 in 10.0 mi NNW 9.2 mph - N/A   Clear
2:55 AM -23.8 °F -45.8 °F -31.0 °F 69% 30.31 in 10.0 mi NNW 10.4 mph - N/A   Clear
3:15 AM -25.6 °F -45.4 °F -31.0 °F 76% 30.32 in 10.0 mi NNW 8.1 mph - N/A   Clear
3:35 AM -25.6 °F -48.0 °F -31.0 °F 76% 30.32 in 10.0 mi NNW 10.4 mph - N/A   Clear
3:55 AM -27.4 °F -44.1 °F -32.8 °F 75% 30.33 in 10.0 mi NNW 5.8 mph - N/A   Clear
4:15 AM -27.4 °F -47.6 °F -34.6 °F 69% 30.34 in 10.0 mi NW 8.1 mph - N/A   Clear
4:35 AM -27.4 °F -47.6 °F -34.6 °F 69% 30.35 in 10.0 mi NNW 8.1 mph - N/A   Scattered Clouds
4:55 AM -27.4 °F -49.0 °F -34.6 °F 69% 30.35 in 10.0 mi NNW 9.2 mph - N/A   Partly Cloudy
5:15 AM -29.2 °F -49.7 °F -34.6 °F 75% 30.36 in 10.0 mi NNW 8.1 mph - N/A   Clear
5:35 AM -29.2 °F -41.2 °F -36.4 °F 68% 30.37 in 10.0 mi WNW 3.5 mph - N/A   Clear
5:55 AM -29.2 °F -48.1 °F -36.4 °F 68% 30.37 in 10.0 mi NW 6.9 mph - N/A   Clear
6:15 AM -31.0 °F -53.4 °F -38.2 °F 68% 30.38 in 10.0 mi NW 9.2 mph - N/A   Clear
6:35 AM -31.0 °F -46.1 °F -38.2 °F 68% 30.39 in 10.0 mi NW 4.6 mph - N/A   Clear
6:55 AM -31.0 °F -56.0 °F -38.2 °F 68% 30.39 in 10.0 mi NW 11.5 mph - N/A   Clear
7:15 AM -29.2 °F -51.2 °F -36.4 °F 68% 30.40 in 10.0 mi NW 9.2 mph - N/A   Mostly Cloudy
7:35 AM -29.2 °F -51.2 °F -36.4 °F 68% 30.40 in 10.0 mi NNW 9.2 mph - N/A   Partly Cloudy
7:55 AM -27.4 °F -50.3 °F -34.6 °F 69% 30.42 in 10.0 mi NNW 10.4 mph - N/A   Clear
8:15 AM -29.2 °F -49.7 °F -36.4 °F 68% 30.43 in 10.0 mi NNW 8.1 mph - N/A   Clear
8:35 AM -27.4 °F -47.6 °F -34.6 °F 69% 30.44 in 10.0 mi NNW 8.1 mph - N/A   Clear
8:55 AM -25.6 °F -48.0 °F -31.0 °F 76% 30.44 in 10.0 mi NNW 10.4 mph - N/A   Clear
9:15 AM -22.0 °F -43.6 °F -29.2 °F 69% 30.43 in 10.0 mi NNW 10.4 mph - N/A   Clear
9:35 AM -22.0 °F -43.6 °F -29.2 °F 69% 30.43 in 10.0 mi NW 10.4 mph - N/A   Clear
9:55 AM -20.2 °F -43.4 °F -27.4 °F 69% 30.44 in 10.0 mi NW 12.7 mph - N/A   Clear
10:15 AM -20.2 °F -42.4 °F -27.4 °F 69% 30.45 in 10.0 mi WNW 11.5 mph - N/A   Clear
10:35 AM -18.4 °F -41.2 °F -27.4 °F 63% 30.46 in 10.0 mi WNW 12.7 mph - N/A   Clear
10:55 AM -18.4 °F -42.1 °F -27.4 °F 63% 30.46 in 10.0 mi West 13.8 mph - N/A   Clear
11:15 AM -16.6 °F -41.4 °F -27.4 °F 58% 30.46 in 10.0 mi WNW 16.1 mph - N/A   Clear
11:35 AM -16.6 °F -42.9 °F -27.4 °F 58% 30.47 in 10.0 mi WNW 18.4 mph - N/A   Clear
11:55 AM -16.6 °F -42.9 °F -27.4 °F 58% 30.47 in 9.0 mi WNW 18.4 mph - N/A   Clear
12:15 PM -16.6 °F -42.9 °F -27.4 °F 58% 30.47 in 10.0 mi WNW 18.4 mph - N/A   Clear
12:35 PM -16.6 °F -44.1 °F -27.4 °F 58% 30.47 in 10.0 mi WNW 20.7 mph - N/A   Clear
12:55 PM -16.6 °F -44.1 °F -29.2 °F 53% 30.47 in 10.0 mi WNW 20.7 mph - N/A   Clear
1:15 PM -16.6 °F -44.8 °F -29.2 °F 53% 30.45 in 10.0 mi WNW 21.9 mph - N/A   Clear
1:35 PM -16.6 °F -44.1 °F -27.4 °F 58% 30.45 in 10.0 mi WNW 20.7 mph - N/A   Clear
1:55 PM -16.6 °F -44.8 °F -27.4 °F 58% 30.44 in 10.0 mi WNW 21.9 mph - N/A   Clear
2:15 PM -16.6 °F -44.8 °F -27.4 °F 58% 30.44 in 10.0 mi WNW 21.9 mph - N/A   Partly Cloudy
2:55 PM -16.6 °F -44.8 °F -25.6 °F 64% 30.42 in 10.0 mi WNW 21.9 mph - N/A   Partly Cloudy
3:15 PM -16.6 °F -44.8 °F -25.6 °F 64% 30.43 in 10.0 mi WNW 21.9 mph 25.3 mph N/A   Clear
3:35 PM -16.6 °F -43.5 °F -25.6 °F 64% 30.43 in 10.0 mi WNW 19.6 mph - N/A   Clear
3:55 PM -16.6 °F -41.4 °F -25.6 °F 64% 30.43 in 10.0 mi WNW 16.1 mph - N/A   Clear
4:15 PM -16.6 °F -43.5 °F -25.6 °F 64% 30.43 in 10.0 mi WNW 19.6 mph - N/A   Clear
4:35 PM -16.6 °F -44.1 °F -25.6 °F 64% 30.42 in 10.0 mi WNW 20.7 mph - N/A   Clear
4:55 PM -16.6 °F -43.5 °F -25.6 °F 64% 30.42 in 10.0 mi WNW 19.6 mph - N/A   Clear
5:15 PM -16.6 °F -42.9 °F -25.6 °F 64% 30.42 in 10.0 mi WNW 18.4 mph - N/A   Clear
5:35 PM -16.6 °F -42.9 °F -25.6 °F 64% 30.41 in 9.0 mi WNW 18.4 mph - N/A   Scattered Clouds
5:55 PM -18.4 °F -44.5 °F -25.6 °F 70% 30.41 in 10.0 mi WNW 17.3 mph - N/A   Partly Cloudy
6:15 PM -18.4 °F -42.9 °F -27.4 °F 63% 30.41 in 10.0 mi WNW 15.0 mph - N/A   Clear
6:35 PM -18.4 °F -42.9 °F -27.4 °F 63% 30.41 in 10.0 mi WNW 15.0 mph - N/A   Clear
6:55 PM -20.2 °F -43.4 °F -27.4 °F 69% 30.42 in 10.0 mi West 12.7 mph - N/A   Clear
7:15 PM -20.2 °F -42.4 °F -29.2 °F 63% 30.42 in 10.0 mi West 11.5 mph - N/A   Clear
7:35 PM -22.0 °F -44.7 °F -29.2 °F 69% 30.42 in 10.0 mi West 11.5 mph - N/A   Clear
7:55 PM -20.2 °F -44.4 °F -29.2 °F 63% 30.42 in 10.0 mi West 13.8 mph - N/A   Clear
8:15 PM -22.0 °F -46.6 °F -29.2 °F 69% 30.42 in 10.0 mi West 13.8 mph - N/A   Clear
8:35 PM -22.0 °F -48.4 °F -29.2 °F 69% 30.41 in 10.0 mi West 16.1 mph - N/A   Clear
8:55 PM -20.2 °F -46.8 °F -29.2 °F 63% 30.40 in 10.0 mi West 17.3 mph - N/A   Clear
9:15 PM -20.2 °F -46.0 °F -29.2 °F 63% 30.40 in 10.0 mi West 16.1 mph - N/A   Unknown
9:35 PM -20.2 °F -48.2 °F -29.2 °F 63% 30.40 in 10.0 mi West 19.6 mph - N/A   Unknown
9:55 PM -20.2 °F -47.5 °F -27.4 °F 69% 30.40 in 10.0 mi West 18.4 mph - N/A   Clear
10:15 PM -20.2 °F -47.5 °F -27.4 °F 69% 30.40 in 10.0 mi West 18.4 mph - N/A   Clear
10:35 PM -20.2 °F -47.5 °F -27.4 °F 69% 30.40 in 10.0 mi West 18.4 mph - N/A   Clear
10:55 PM -20.2 °F -47.5 °F -27.4 °F 69% 30.39 in 10.0 mi West 18.4 mph - N/A   Clear
11:15 PM -20.2 °F -47.5 °F -29.2 °F 63% 30.39 in 10.0 mi West 18.4 mph - N/A   Clear
11:35 PM -20.2 °F -47.5 °F -27.4 °F 69% 30.39 in 10.0 mi West 18.4 mph - N/A   Clear
11:55 PM -20.2 °F -46.8 °F -29.2 °F 63% 30.39 in 10.0 mi West 17.3 mph - N/A   Clear